Regional Weather Roundup
Issued by NWS

Home | Current Version | Previous Version | Text Only | Print | Product List | Glossary Off
Versions: 1 2 3 4 5 6 7 8 9 10 11 12 13 14 15 16 17 18 19 20 21 22 23 24 25 26 27 28 29 30 31 32 33 34 35 36 37 38 39 40 41 42 43 44 45 46 47 48 49 50

000
ASUS43 KDMX 231707
RWRIA

WEATHER ROUNDUP FOR IOWA
NATIONAL WEATHER SERVICE DES MOINES IA
1200 PM CDT WED JUL 23 2014

NOTE: "FAIR" INDICATES FEW OR NO CLOUDS BELOW 12,000 FEET WITH NO
SIGNIFICANT WEATHER AND/OR OBSTRUCTIONS TO VISIBILITY.

* - THESE STATIONS ARE NOT NWS STATIONS...THUS NOT UNDER NWS
QUALITY CONTROL.  THEY ALSO DO NOT REPORT WEATHER SUCH
AS PRECIPITATION OR FOG.

IAZ001>003-012>014-020>022-031>034-043>046-231800-
   NORTHWEST IOWA

CITY           SKY/WX    TMP DP  RH WIND       PRES   REMARKS
CARROLL *      SUNNY     75  64  69 CALM      30.24F
CHEROKEE *     SUNNY     77  57  50 NE3       30.26S
DENISON *      SUNNY     77  59  53 CALM      30.24S
LE MARS *      SUNNY     75  55  50 VRB5      30.28S
ORANGE CITY *  SUNNY     79  54  41 CALM      30.28S
SHELDON *      SUNNY     75  57  53 VRB3      30.27R
SIOUX CITY     MOSUNNY   79  57  46 VRB3      30.25F HX  80
SPENCER        SUNNY     77  58  51 NE7       30.26F
STORM LAKE *   SUNNY     75  61  60 CALM      30.27S
$$

IAZ055>058-069>071-079>083-090>094-231800-
   SOUTHWEST IOWA

CITY           SKY/WX    TMP DP  RH WIND       PRES   REMARKS
ATLANTIC *     SUNNY     77  64  65 N6        30.24S
AUDUBON *      SUNNY     81  70  69 NE6       30.26S HX  84
CLARINDA *     SUNNY     81  66  61 VRB7      30.24S HX  83
COUNCIL BLFS * SUNNY     79  63  57 NE8G17    30.23F HX  80
CRESTON *      MOSUNNY   79  64  61 N8        30.24R HX  81
HARLAN  *      SUNNY     77  63  61 N8        30.28F
LAMONI         MOSUNNY   80  64  58 NE7G17    30.21R HX  82
RED OAK *      SUNNY     81  64  57 N6        30.24R HX  82
SHENANDOAH *   SUNNY     79  66  65 NE7       30.23F HX  81
$$

IAZ047>049-059>061-072>074-084-231800-
   CENTRAL IOWA

CITY           SKY/WX    TMP DP  RH WIND       PRES   REMARKS
AMES           MOSUNNY   78  60  53 NE6G16    30.23S
ANKENY *       SUNNY     79  61  53 E9        30.22S HX  80
CHARITON *     SUNNY     79  63  57 NE9G15    30.21S HX  80
DES MOINES     PTSUNNY   82  59  45 E9        30.21S HX  82
GRINNELL*      SUNNY     77  59  53 NE8       30.22S
KNOXVILLE *    SUNNY     79  61  53 NE12      30.20S HX  80
MARSHALLTOWN   SUNNY     78  58  49 E6        30.22S
PELLA *        SUNNY     81  61  50 NE6       30.22R HX  81
PERRY *          N/A     79  63  57 E5        30.24R HX  80
$$

IAZ004>006-015-016-023>025-035-036-231800-
   NORTH CENTRAL IOWA

CITY           SKY/WX    TMP DP  RH WIND       PRES   REMARKS
ALGONA *       MOSUNNY   77  61  57 VRB6      30.26S
CLARION *      MOSUNNY   77  57  50 E7        30.25S
ESTHERVILLE    MOSUNNY   74  61  63 NE9       30.26S
FORT DODGE *   MOSUNNY   75  63  64 NE5       30.26S
MASON CITY     PTSUNNY   75  56  51 NE3       30.27R
FOREST CITY *  MOSUNNY   75  54  46 E7        30.26S
IOWA FALLS *     N/A     77  55  47 NE8       30.25S
$$

IAZ007>011-017>019-026>030-037>042-050>054-066-231800-
   NORTHEAST IOWA

CITY           SKY/WX    TMP DP  RH WIND       PRES   REMARKS
CEDAR RAPIDS   SUNNY     77  55  46 E10G20    30.20S
CHARLES CITY * MOSUNNY   75  55  50 NE6       30.25S
CLINTON *      SUNNY     73  57  56 NE16      30.21F
DECORAH *      MOSUNNY   73  57  56 CALM      30.23F
DUBUQUE        MOSUNNY   74  58  57 NE14      30.21F
MONTICELLO *   SUNNY     75  59  57 VRB6G17   30.20F
OELWEIN *      MOSUNNY   73  55  53 N7        30.24R
WATERLOO       SUNNY     78  54  43 NE7       30.22S
$$

IAZ064-065-067-068-078-231800-
   EAST CENTRAL IOWA

CITY           SKY/WX    TMP DP  RH WIND       PRES   REMARKS
DAVENPORT      SUNNY     76  57  51 NE17      30.19F
IOWA CITY      SUNNY     77  59  53 NE10      30.20S
MT. PLEASANT * MOSUNNY   79  63  57 N10       30.17S HX  80
MUSCATINE *    MOSUNNY   79  59  50 NE16      30.16F HX  80
QUAD CITIES    SUNNY     77  56  48 NE16G25   30.16F
$$

IAZ062-063-075>077-085>089-095>099-231800-
   SOUTHEAST IOWA

CITY           SKY/WX    TMP DP  RH WIND       PRES   REMARKS
BURLINGTON     MOSUNNY   77  64  64 NE13      30.16R
FAIRFIELD *    SUNNY     77  63  61 N10       30.18S
FORT MADISON * MOSUNNY   79  68  69 NE8       30.16S HX  81
KEOKUK *       MOSUNNY   79  68  69 NE9G17    30.15S HX  81
OSKALOOSA *      N/A     79  59  50 NE12G17   30.20S HX  80
CENTERVILLE *  SUNNY     77  64  65 NE8       30.21R
OTTUMWA        SUNNY     79  59  50 NE13      30.19R HX  80
WASHINGTON *   SUNNY     77  63  61 NE13G20   30.18S
$$

ABBREVIATIONS USED IN REMARKS
   TC - TEMPERATURES IN CELSIUS
  WCI - WIND CHILL INDEX
   HX - HEAT INDEX
  VSB - VISIBILITY
$$




USA.gov is the U.S. government's official web portal to all federal, state and local government web resources and services.